Time,TemperatureF,DewpointF,PressureIn,WindDirection,WindDirectionDegrees,WindSpeedMPH,WindSpeedGustMPH,Humidity,HourlyPrecipIn,Conditions,Clouds,dailyrainin,SoftwareType,DateUTC
2013-05-06 00:02:00,62.0,41.0,-100.00,NE,45,4.0,9.0,46,0.00,,,-99.99,,2013-05-06 04:02:00,
2013-05-06 00:12:00,62.0,41.0,-100.00,NNE,25,4.0,9.0,45,0.00,,,-99.99,,2013-05-06 04:12:00,
2013-05-06 00:23:00,62.0,40.0,-100.00,NE,45,4.0,9.0,44,0.00,,,-99.99,,2013-05-06 04:23:00,
2013-05-06 00:32:00,62.0,39.0,-100.00,NE,55,6.0,9.0,42,0.00,,,-99.99,,2013-05-06 04:32:00,
2013-05-06 00:42:00,62.0,39.0,-100.00,NE,45,5.0,9.0,42,0.00,,,-99.99,,2013-05-06 04:42:00,
2013-05-06 00:52:00,63.0,38.0,-100.00,ENE,60,4.0,7.0,40,0.00,,,-99.99,,2013-05-06 04:52:00,
2013-05-06 01:02:00,62.0,38.0,-100.00,ENE,60,5.0,9.0,40,0.00,,,-99.99,,2013-05-06 05:02:00,
2013-05-06 01:12:00,62.0,39.0,-100.00,NE,40,3.0,9.0,41,0.00,,,-99.99,,2013-05-06 05:12:00,
2013-05-06 01:22:00,62.0,38.0,-100.00,ENE,60,4.0,9.0,40,0.00,,,-99.99,,2013-05-06 05:22:00,
2013-05-06 01:32:00,62.0,37.0,-100.00,ENE,70,6.0,9.0,39,0.00,,,-99.99,,2013-05-06 05:32:00,
2013-05-06 01:42:00,62.0,36.0,-100.00,ENE,65,6.0,9.0,37,0.00,,,-99.99,,2013-05-06 05:42:00,
2013-05-06 01:52:00,62.0,36.0,-100.00,ENE,70,4.0,9.0,37,0.00,,,-99.99,,2013-05-06 05:52:00,
2013-05-06 02:02:00,63.0,35.0,-100.00,East,85,7.0,11.0,35,0.00,,,-99.99,,2013-05-06 06:02:00,
2013-05-06 02:12:00,63.0,34.0,-100.00,East,90,6.0,9.0,34,0.00,,,-99.99,,2013-05-06 06:12:00,
2013-05-06 02:21:00,63.0,34.0,-100.00,East,90,4.0,11.0,34,0.00,,,-99.99,,2013-05-06 06:21:00,
2013-05-06 02:32:00,62.0,34.0,-100.00,East,85,4.0,8.0,33,0.00,,,-99.99,,2013-05-06 06:32:00,
2013-05-06 02:42:00,62.0,34.0,-100.00,East,95,6.0,7.0,33,0.00,,,-99.99,,2013-05-06 06:42:00,
2013-05-06 02:52:00,62.0,34.0,-100.00,East,95,3.0,7.0,34,0.00,,,-99.99,,2013-05-06 06:52:00,
2013-05-06 03:01:00,62.0,34.0,-100.00,East,90,3.0,6.0,34,0.00,,,-99.99,,2013-05-06 07:01:00,
2013-05-06 03:11:00,62.0,33.0,-100.00,East,95,3.0,9.0,34,0.00,,,-99.99,,2013-05-06 07:11:00,
2013-05-06 03:22:00,62.0,34.0,-100.00,East,95,4.0,7.0,35,0.00,,,-99.99,,2013-05-06 07:22:00,
2013-05-06 03:32:00,62.0,34.0,-100.00,ESE,105,2.0,5.0,35,0.00,,,-99.99,,2013-05-06 07:32:00,
2013-05-06 03:42:00,61.0,35.0,-100.00,ENE,70,2.0,4.0,37,0.00,,,-99.99,,2013-05-06 07:42:00,
2013-05-06 03:52:00,61.0,35.0,-100.00,ESE,120,2.0,4.0,37,0.00,,,-99.99,,2013-05-06 07:52:00,
2013-05-06 04:02:00,61.0,36.0,-100.00,ENE,65,1.0,3.0,39,0.00,,,-99.99,,2013-05-06 08:02:00,
2013-05-06 04:12:00,60.0,36.0,-100.00,ENE,65,1.0,3.0,40,0.00,,,-99.99,,2013-05-06 08:12:00,
2013-05-06 04:22:00,60.0,36.0,-100.00,East,85,1.0,2.0,41,0.00,,,-99.99,,2013-05-06 08:22:00,
2013-05-06 04:32:00,59.0,37.0,-100.00,ENE,70,1.0,2.0,44,0.00,,,-99.99,,2013-05-06 08:32:00,
2013-05-06 04:42:00,59.0,37.0,-100.00,ENE,65,1.0,4.0,43,0.00,,,-99.99,,2013-05-06 08:42:00,
2013-05-06 04:52:00,59.0,37.0,-100.00,NE,55,1.0,2.0,43,0.00,,,-99.99,,2013-05-06 08:52:00,
2013-05-06 05:02:00,59.0,37.0,-100.00,NE,50,1.0,3.0,44,0.00,,,-99.99,,2013-05-06 09:02:00,
2013-05-06 05:11:00,58.0,37.0,-100.00,NE,50,1.0,3.0,44,0.00,,,-99.99,,2013-05-06 09:11:00,
2013-05-06 05:22:00,58.0,38.0,-100.00,NE,55,2.0,3.0,46,0.00,,,-99.99,,2013-05-06 09:22:00,
2013-05-06 05:33:00,58.0,38.0,-100.00,East,95,2.0,4.0,46,0.00,,,-99.99,,2013-05-06 09:33:00,
2013-05-06 05:42:00,59.0,37.0,-100.00,East,85,3.0,6.0,43,0.00,,,-99.99,,2013-05-06 09:42:00,
2013-05-06 05:53:00,59.0,37.0,-100.00,East,85,2.0,6.0,43,0.00,,,-99.99,,2013-05-06 09:53:00,
2013-05-06 06:02:00,59.0,37.0,-100.00,East,85,2.0,6.0,43,0.00,,,-99.99,,2013-05-06 10:02:00,
2013-05-06 06:12:00,59.0,37.0,-100.00,East,80,2.0,5.0,43,0.00,,,-99.99,,2013-05-06 10:12:00,
2013-05-06 06:22:00,59.0,37.0,-100.00,ENE,75,2.0,5.0,44,0.00,,,-99.99,,2013-05-06 10:22:00,
2013-05-06 06:33:00,59.0,37.0,-100.00,East,85,2.0,4.0,44,0.00,,,-99.99,,2013-05-06 10:33:00,
2013-05-06 06:42:00,58.0,37.0,-100.00,ENE,75,2.0,5.0,44,0.00,,,-99.99,,2013-05-06 10:42:00,
2013-05-06 06:52:00,59.0,37.0,-100.00,East,85,4.0,7.0,43,0.00,,,-99.99,,2013-05-06 10:52:00,
2013-05-06 07:02:00,59.0,38.0,-100.00,NE,50,3.0,6.0,45,0.00,,,-99.99,,2013-05-06 11:02:00,
2013-05-06 07:12:00,58.0,38.0,-100.00,NNE,30,4.0,6.0,45,0.00,,,-99.99,,2013-05-06 11:12:00,
2013-05-06 07:22:00,58.0,39.0,-100.00,NE,55,3.0,6.0,48,0.00,,,-99.99,,2013-05-06 11:22:00,
2013-05-06 07:32:00,59.0,39.0,-100.00,NE,55,3.0,6.0,47,0.00,,,-99.99,,2013-05-06 11:32:00,
2013-05-06 07:42:00,59.0,40.0,-100.00,ENE,70,2.0,6.0,48,0.00,,,-99.99,,2013-05-06 11:42:00,
2013-05-06 07:52:00,59.0,40.0,-100.00,ENE,75,3.0,6.0,49,0.00,,,-99.99,,2013-05-06 11:52:00,
2013-05-06 08:02:00,59.0,40.0,-100.00,ENE,75,6.0,8.0,49,0.00,,,-99.99,,2013-05-06 12:02:00,
2013-05-06 08:12:00,59.0,41.0,-100.00,ENE,75,6.0,10.0,49,0.00,,,-99.99,,2013-05-06 12:12:00,
2013-05-06 08:21:00,60.0,41.0,-100.00,ENE,75,6.0,12.0,49,0.00,,,-99.99,,2013-05-06 12:21:00,
2013-05-06 08:32:00,60.0,40.0,-100.00,East,85,7.0,12.0,48,0.00,,,-99.99,,2013-05-06 12:32:00,
2013-05-06 08:42:00,60.0,41.0,-100.00,East,85,6.0,11.0,50,0.00,,,-99.99,,2013-05-06 12:42:00,
2013-05-06 08:52:00,60.0,42.0,-100.00,East,80,3.0,8.0,50,0.00,,,-99.99,,2013-05-06 12:52:00,
2013-05-06 09:01:00,60.0,42.0,-100.00,ENE,70,6.0,9.0,50,0.00,,,-99.99,,2013-05-06 13:01:00,
2013-05-06 09:11:00,61.0,43.0,-100.00,NE,55,4.0,9.0,51,0.00,,,-99.99,,2013-05-06 13:11:00,
2013-05-06 09:21:00,61.0,43.0,-100.00,NE,50,6.0,9.0,50,0.00,,,-99.99,,2013-05-06 13:21:00,
2013-05-06 09:32:00,62.0,42.0,-100.00,East,85,5.0,9.0,49,0.00,,,-99.99,,2013-05-06 13:32:00,
2013-05-06 09:42:00,62.0,44.0,-100.00,East,90,4.0,9.0,51,0.00,,,-99.99,,2013-05-06 13:42:00,
2013-05-06 09:52:00,62.0,44.0,-100.00,East,80,6.0,11.0,51,0.00,,,-99.99,,2013-05-06 13:52:00,
2013-05-06 10:01:00,61.0,44.0,-100.00,ENE,65,6.0,10.0,52,0.00,,,-99.99,,2013-05-06 14:01:00,
2013-05-06 10:11:00,62.0,44.0,-100.00,ENE,65,4.0,9.0,53,0.00,,,-99.99,,2013-05-06 14:11:00,
2013-05-06 10:21:00,62.0,44.0,-100.00,NE,40,4.0,12.0,52,0.00,,,-99.99,,2013-05-06 14:21:00,
2013-05-06 10:32:00,63.0,45.0,-100.00,ENE,60,6.0,11.0,51,0.00,,,-99.99,,2013-05-06 14:32:00,
2013-05-06 10:42:00,63.0,45.0,-100.00,NE,40,7.0,14.0,52,0.00,,,-99.99,,2013-05-06 14:42:00,
2013-05-06 10:51:00,63.0,45.0,-100.00,NE,45,8.0,12.0,51,0.00,,,-99.99,,2013-05-06 14:51:00,
2013-05-06 11:01:00,64.0,45.0,-100.00,ENE,70,5.0,11.0,51,0.00,,,-99.99,,2013-05-06 15:01:00,
2013-05-06 11:11:00,63.0,46.0,-100.00,NE,50,7.0,12.0,53,0.00,,,-99.99,,2013-05-06 15:11:00,
2013-05-06 11:21:00,64.0,47.0,-100.00,ENE,70,4.0,11.0,54,0.00,,,-99.99,,2013-05-06 15:21:00,
2013-05-06 11:33:00,63.0,46.0,-100.00,ENE,70,6.0,11.0,53,0.00,,,-99.99,,2013-05-06 15:33:00,
2013-05-06 11:42:00,63.0,47.0,-100.00,East,85,7.0,12.0,55,0.00,,,-99.99,,2013-05-06 15:42:00,
2013-05-06 11:53:00,63.0,47.0,-100.00,ENE,70,6.0,12.0,57,0.00,,,-99.99,,2013-05-06 15:53:00,
2013-05-06 12:03:00,61.0,49.0,-100.00,ENE,65,6.0,12.0,63,0.00,,,-99.99,,2013-05-06 16:03:00,
2013-05-06 12:13:00,61.0,49.0,-100.00,East,90,7.0,10.0,64,0.00,,,-99.99,,2013-05-06 16:13:00,
2013-05-06 12:23:00,61.0,51.0,-100.00,ENE,70,3.0,8.0,71,0.55,,,-99.99,,2013-05-06 16:23:00,
2013-05-06 12:33:00,60.0,51.0,-100.00,East,100,4.0,9.0,71,0.00,,,-99.99,,2013-05-06 16:33:00,
2013-05-06 12:42:00,59.0,51.0,-100.00,East,80,6.0,9.0,74,0.00,,,-99.99,,2013-05-06 16:42:00,
2013-05-06 12:52:00,60.0,52.0,-100.00,East,80,5.0,9.0,74,0.00,,,-99.99,,2013-05-06 16:52:00,
2013-05-06 13:03:00,60.0,52.0,-100.00,ENE,75,6.0,12.0,75,0.00,,,-99.99,,2013-05-06 17:03:00,
2013-05-06 13:12:00,60.0,52.0,-100.00,ENE,75,6.0,10.0,75,0.00,,,-99.99,,2013-05-06 17:12:00,
2013-05-06 13:23:00,60.0,53.0,-100.00,East,95,6.0,10.0,78,0.55,,,-99.99,,2013-05-06 17:23:00,
2013-05-06 13:32:00,60.0,54.0,-100.00,NE,50,4.0,8.0,79,0.00,,,-99.99,,2013-05-06 17:32:00,
2013-05-06 13:42:00,60.0,54.0,-100.00,NE,55,6.0,8.0,79,0.00,,,-99.99,,2013-05-06 17:42:00,
2013-05-06 13:52:00,60.0,54.0,-100.00,NE,45,5.0,7.0,79,0.00,,,-99.99,,2013-05-06 17:52:00,
2013-05-06 14:01:00,60.0,54.0,-100.00,ENE,70,6.0,9.0,78,0.00,,,-99.99,,2013-05-06 18:01:00,
2013-05-06 14:12:00,60.0,54.0,-100.00,ENE,60,3.0,7.0,80,0.00,,,-99.99,,2013-05-06 18:12:00,
2013-05-06 14:22:00,60.0,54.0,-100.00,NE,35,4.0,6.0,80,0.00,,,-99.99,,2013-05-06 18:22:00,
2013-05-06 14:32:00,61.0,55.0,-100.00,East,80,2.0,4.0,79,0.00,,,-99.99,,2013-05-06 18:32:00,
2013-05-06 14:43:00,63.0,55.0,-100.00,ENE,65,2.0,5.0,76,0.00,,,-99.99,,2013-05-06 18:43:00,
2013-05-06 14:52:00,63.0,55.0,-100.00,ENE,70,3.0,7.0,75,0.00,,,-99.99,,2013-05-06 18:52:00,
2013-05-06 15:01:00,63.0,55.0,-100.00,East,80,3.0,5.0,76,0.00,,,-99.99,,2013-05-06 19:01:00,
2013-05-06 15:11:00,64.0,55.0,-100.00,ESE,105,1.0,4.0,73,0.00,,,-99.99,,2013-05-06 19:11:00,
2013-05-06 15:22:00,65.0,56.0,-100.00,ESE,110,2.0,6.0,72,0.00,,,-99.99,,2013-05-06 19:22:00,
2013-05-06 15:32:00,67.0,55.0,-100.00,NE,55,1.0,3.0,65,0.00,,,-99.99,,2013-05-06 19:32:00,
2013-05-06 15:41:00,69.0,57.0,-100.00,North,10,1.0,5.0,66,0.00,,,-99.99,,2013-05-06 19:41:00,
2013-05-06 15:52:00,69.0,57.0,-100.00,North,10,1.0,5.0,66,0.00,,,-99.99,,2013-05-06 19:52:00,
2013-05-06 16:02:00,70.0,52.0,-100.00,NE,55,4.0,11.0,52,0.00,,,-99.99,,2013-05-06 20:02:00,
2013-05-06 16:11:00,70.0,50.0,-100.00,East,85,6.0,11.0,48,0.00,,,-99.99,,2013-05-06 20:11:00,
2013-05-06 16:21:00,72.0,51.0,-100.00,ENE,70,5.0,12.0,48,0.00,,,-99.99,,2013-05-06 20:21:00,
2013-05-06 16:32:00,71.0,51.0,-100.00,North,0,6.0,11.0,50,0.00,,,-99.99,,2013-05-06 20:32:00,
2013-05-06 16:42:00,72.0,50.0,-100.00,ENE,70,4.0,9.0,46,0.00,,,-99.99,,2013-05-06 20:42:00,
2013-05-06 16:52:00,71.0,48.0,-100.00,NNE,30,6.0,10.0,45,0.00,,,-99.99,,2013-05-06 20:52:00,
2013-05-06 17:01:00,70.0,48.0,-100.00,NE,45,5.0,9.0,45,0.00,,,-99.99,,2013-05-06 21:01:00,
2013-05-06 17:11:00,70.0,48.0,-100.00,NE,45,5.0,9.0,45,0.00,,,-99.99,,2013-05-06 21:11:00,
2013-05-06 17:21:00,73.0,48.0,-100.00,East,90,4.0,9.0,42,0.00,,,-99.99,,2013-05-06 21:21:00,
2013-05-06 17:33:00,72.0,49.0,-100.00,NE,45,6.0,11.0,42,0.00,,,-99.99,,2013-05-06 21:33:00,
2013-05-06 17:43:00,72.0,49.0,-100.00,East,80,4.0,12.0,45,0.00,,,-99.99,,2013-05-06 21:43:00,
2013-05-06 17:53:00,73.0,51.0,-100.00,East,85,3.0,6.0,45,0.00,,,-99.99,,2013-05-06 21:53:00,
2013-05-06 18:03:00,72.0,51.0,-100.00,ESE,115,4.0,8.0,48,0.00,,,-99.99,,2013-05-06 22:03:00,
2013-05-06 18:12:00,71.0,51.0,-100.00,SE,130,3.0,6.0,47,0.00,,,-99.99,,2013-05-06 22:12:00,
2013-05-06 18:22:00,71.0,51.0,-100.00,East,95,3.0,6.0,49,0.00,,,-99.99,,2013-05-06 22:22:00,
2013-05-06 18:33:00,71.0,50.0,-100.00,SE,135,2.0,8.0,47,0.00,,,-99.99,,2013-05-06 22:33:00,
2013-05-06 18:45:00,72.0,51.0,-100.00,ESE,105,2.0,5.0,48,0.00,,,-99.99,,2013-05-06 22:45:00,
2013-05-06 18:52:00,72.0,51.0,-100.00,SE,135,2.0,6.0,48,0.00,,,-99.99,,2013-05-06 22:52:00,
2013-05-06 19:03:00,71.0,52.0,-100.00,ESE,110,3.0,6.0,50,0.00,,,-99.99,,2013-05-06 23:03:00,
2013-05-06 19:12:00,70.0,53.0,-100.00,SE,125,2.0,7.0,54,0.00,,,-99.99,,2013-05-06 23:12:00,
2013-05-06 19:22:00,69.0,51.0,-100.00,SE,140,2.0,6.0,52,0.00,,,-99.99,,2013-05-06 23:22:00,
2013-05-06 19:32:00,69.0,52.0,-100.00,South,180,2.0,3.0,53,0.00,,,-99.99,,2013-05-06 23:32:00,
2013-05-06 19:42:00,69.0,52.0,-100.00,East,80,1.0,3.0,54,0.00,,,-99.99,,2013-05-06 23:42:00,
2013-05-06 19:52:00,69.0,53.0,-100.00,SSE,150,1.0,4.0,56,0.00,,,-99.99,,2013-05-06 23:52:00,
2013-05-06 20:01:00,68.0,52.0,-100.00,SE,130,2.0,4.0,57,0.00,,,-99.99,,2013-05-07 00:01:00,
2013-05-06 20:11:00,68.0,52.0,-100.00,ESE,110,1.0,5.0,57,0.00,,,-99.99,,2013-05-07 00:11:00,
2013-05-06 20:21:00,68.0,52.0,-100.00,East,90,4.0,5.0,56,0.00,,,-99.99,,2013-05-07 00:21:00,
2013-05-06 20:32:00,68.0,53.0,-100.00,ESE,110,3.0,4.0,58,0.00,,,-99.99,,2013-05-07 00:32:00,
2013-05-06 20:42:00,67.0,53.0,-100.00,East,95,4.0,6.0,59,0.00,,,-99.99,,2013-05-07 00:42:00,
2013-05-06 20:52:00,67.0,52.0,-100.00,ESE,120,6.0,8.0,59,0.00,,,-99.99,,2013-05-07 00:52:00,
2013-05-06 21:01:00,66.0,52.0,-100.00,East,95,3.0,7.0,60,0.00,,,-99.99,,2013-05-07 01:01:00,
2013-05-06 21:11:00,66.0,52.0,-100.00,East,95,4.0,6.0,61,0.00,,,-99.99,,2013-05-07 01:11:00,
2013-05-06 21:21:00,66.0,52.0,-100.00,ENE,70,3.0,6.0,61,0.00,,,-99.99,,2013-05-07 01:21:00,
2013-05-06 21:32:00,65.0,52.0,-100.00,ENE,70,2.0,4.0,61,0.00,,,-99.99,,2013-05-07 01:32:00,
2013-05-06 21:42:00,65.0,52.0,-100.00,NE,50,3.0,6.0,60,0.00,,,-99.99,,2013-05-07 01:42:00,
2013-05-06 21:52:00,65.0,52.0,-100.00,East,90,3.0,7.0,62,0.00,,,-99.99,,2013-05-07 01:52:00,
2013-05-06 22:02:00,65.0,52.0,-100.00,ESE,105,3.0,6.0,63,0.00,,,-99.99,,2013-05-07 02:02:00,
2013-05-06 22:11:00,64.0,52.0,-100.00,ESE,110,2.0,4.0,64,0.00,,,-99.99,,2013-05-07 02:11:00,
2013-05-06 22:21:00,64.0,52.0,-100.00,ESE,105,2.0,4.0,65,0.00,,,-99.99,,2013-05-07 02:21:00,
2013-05-06 22:32:00,64.0,53.0,-100.00,East,100,1.0,4.0,66,0.00,,,-99.99,,2013-05-07 02:32:00,
2013-05-06 22:42:00,64.0,53.0,-100.00,East,95,3.0,4.0,66,0.00,,,-99.99,,2013-05-07 02:42:00,
2013-05-06 22:52:00,64.0,53.0,-100.00,East,100,2.0,4.0,67,0.00,,,-99.99,,2013-05-07 02:52:00,
2013-05-06 23:02:00,63.0,53.0,-100.00,East,95,2.0,4.0,68,0.00,,,-99.99,,2013-05-07 03:02:00,
2013-05-06 23:11:00,63.0,53.0,-100.00,East,90,2.0,4.0,69,0.00,,,-99.99,,2013-05-07 03:11:00,
2013-05-06 23:22:00,63.0,53.0,-100.00,ESE,105,2.0,4.0,69,0.00,,,-99.99,,2013-05-07 03:22:00,
2013-05-06 23:32:00,63.0,53.0,-100.00,SE,130,2.0,4.0,70,0.00,,,-99.99,,2013-05-07 03:32:00,
2013-05-06 23:42:00,62.0,53.0,-100.00,East,100,2.0,4.0,70,0.00,,,-99.99,,2013-05-07 03:42:00,
2013-05-06 23:53:00,62.0,53.0,-100.00,ESE,110,1.0,4.0,71,0.00,,,-99.99,,2013-05-07 03:53:00,